Location: Goll?ig?dem
(16.6773°N, 80.7332°E)
Time: 01:29:27
(UTC+00:00)

Milstar 3 Cent rocket - Pass Details

Date: 19 May 2025
Orbit: 706 x 5144 km, 28.3° (Epoch: 18 June)

Event Time Altitude Azimuth Distance (km) Brightness Sun altitude
Rises 16:39:59 0° 293° (WNW) 8,021 7.8 -44.0°
Reaches altitude 10° 16:46:30 10° 294° (WNW) 6,288 7.1 -44.9°
Enters shadow 17:00:35 60° 295° (WNW) 2,220 4.2 -46.9°
